194  
ASUS41 KPHI 141913  
RWRPHI  
 
REGIONAL WEATHER ROUNDUP  
NATIONAL WEATHER SERVICE MOUNT HOLLY NJ  
300 PM EDT TUE AUG 14 2018  
 
NOTE: "FAIR" INDICATES FEW OR NO CLOUDS BELOW 12,000 FEET WITH NO  
SIGNIFICANT WEATHER AND/OR S TO VISIBILITY
.  
 
* = STATION DOES NOT REPORT PRECIPITATION (E.G. RAIN, SNOW, ETC.)  
OR FOG.
 
 
NJZ015>026-142000-  
SOUTHERN NEW JERSEY  
 
CITY SKY/WX TMP DP RH WIND PRES REMARKS
 
POMONA FAIR 85 68 56 W13G23 29.86F  
MILLVILLE FAIR 83 68 60 SW12G22 29.87F  
WRIGHTSTOWN FAIR 80 71 74 SW12 29.82F  
MOUNT HOLLY FAIR 79 67 66 SW8 29.85F  
TRENTON TSTM 74 67 78 W8 29.86R  
 

 
NJZ001>014-142000-  
NORTHERN NEW JERSEY  
 
CITY SKY/WX TMP DP RH WIND PRES REMARKS
 
SUSSEX FAIR 75 73 93 S6 29.85F  
ANDOVER* N/A 73 71 93 CALM 29.86F  
MORRISTOWN PTSUNNY 73 70 88 W5 29.85F  
NEWARK TSTM 75 68 78 W21G28 29.82F  
TETERBORO TSTM 78 67 68 W12 29.81F  
CALDWELL PTSUNNY 74 71 91 W7 29.84F  
SOMERVILLE CLOUDY 75 70 84 CALM 29.84R THUNDER  
ALLAIRE* FAIR 84 67 56 SW10 29.85F  
TOMS RIVER* PTSUNNY 85 68 56 W7 29.85F  
 

 
PAZ043-044-047-054-055-060>062-066>071-142000-  
EASTERN PENNSYLVANIA  
 
CITY SKY/WX TMP DP RH WIND PRES REMARKS
 
PHILADELPHIA TSTM 74 69 85 NW18G36 29.88S FOG  
NORTH PHILA TSTM 74 67 78 W15G25 29.87S  
BLUE BELL* PTSUNNY 73 66 78 NW3 29.88S  
DOYLESTOWN FAIR 73 67 81 CALM 29.86F  
QUAKERTOWN* SUNNY 73 72 94 SW5 29.87F  
PERKASIE* FAIR 70 70 100 W3 29.88F  
POTTSTOWN FAIR 74 67 78 CALM 29.88F  
LANCASTER HVY RAIN 72 69 90 NW18G29 29.89S FOG  
COATESVILLE FAIR 77 66 69 VRB7G14 29.90F  
READING PTSUNNY 82 69 64 W12 29.85F  
ALLENTOWN FAIR 77 68 73 SW6 29.85F  
MOUNT POCONO PTSUNNY 73 63 70 W10 29.90F  
HAZLETON HVY RAIN 70 59 68 MISG 29.95R  
LEHIGHTON CLOUDY 77 64 65 SW5 29.87S  
WILKES BARRE CLOUDY 74 65 73 SW9 29.86F  
 

 
DEZALL-MDZ008-012-015-019-020-142000-  
DELAWARE AND EASTERN MARYLAND  
 
CITY SKY/WX TMP DP RH WIND PRES REMARKS
 
WILMINGTON PTSUNNY 82 68 62 SW13 29.87F  
DOVER MOSUNNY 82 67 60 SW13G23 29.88F  
GEORGETOWN FAIR 85 65 51 W12 29.91F  
EASTON MOSUNNY 84 68 58 SW9 29.95F  
ABERDEEN PTSUNNY 81 68 65 W9 29.89  
PATUXENT FAIR 84 65 52 W9 29.92F  
OCEAN CITY FAIR 84 66 54 W10 29.91F  
WALLOPS ISLAND FAIR 84 68 58 W10G21 29.93F  
CAMBRIDGE SUNNY 82 66 57 W9G16 29.92F  
SALISBURY FAIR 84 68 58 W13 29.91F  
 

 
PAZ001-021-NYZ056-072-MDZ011-DCZ001-142000-  
OTHER NEARBY LOCATIONS  
 
CITY SKY/WX TMP DP RH WIND PRES REMARKS
 
HARRISBURG CLOUDY 78 65 63 NW15G21 29.89S  
STATE COLLEGE PTSUNNY 70 63 78 SW6 29.93F  
WILLIAMSPORT LGT RAIN 74 65 73 VRB3 29.86F  
BINGHAMTON RAIN 67 65 93 NW8 29.86F FOG  
NEW YORK CITY PTSUNNY 79 69 71 VRB5 29.85F  
BALTIMORE PTSUNNY 83 66 56 W10 29.90F  
WASHINGTON DC PTSUNNY 85 63 47 W8 29.92F  
 

 
 
 
CLICK HERE TO GO TO PREVIOUS BULLETINS.

The Nexlab PA Page
The Nexlab NJ Page
The Nexlab DE Page
The Nexlab MD Page Main Text Page